Lid_Strength_Index
1 3 5 5 10 12 16 13 10 10 9 8 7 8 9 8 9 11 4 1 0 0 -0 -0 -1 -1 -1 -1 -1 -1 -1 -1 -2 -2 -2 -2 -2 -2 -2 -2 -2 -2 -2 -2 -1 -2 -2 -1 -1
3 3 5 8 13 16 15 12 11 10 9 8 7 8 8 9 6 6 4 1 0 0 -0 -0 -0 -1 -1 -1 -1 -1 -2 -2 -1 -2 -2 -2 -2 -2 -2 -2 -2 -2 -2 -2 -2 -1 -1 -1 -1
5 4 7 10 13 16 15 11 11 10 9 9 8 7 8 9 5 5 4 1 0 0 -0 -0 -0 -1 -1 -1 -1 -1 -2 -2 -2 -2 -2 -2 -2 -2 -2 -2 -2 -2 -2 -2 -2 -1 -1 -1 -1
8 6 8 13 15 12 12 12 11 10 9 8 8 9 6 4 4 4 1 0 1 0 0 -0 -0 -1 -1 -1 -1 -1 -1 -2 -2 -2 -2 -2 -2 -2 -2 -2 -2 -2 -2 -2 -1 -1 -1 -1 -1
8 9 13 15 14 11 11 12 11 11 11 9 8 9 8 4 5 1 1 1 1 1 1 -0 -0 -1 -1 -1 -1 -1 -1 -1 -2 -2 -2 -2 -2 -2 -2 -2 -2 -2 -2 -2 -1 -1 -1 -1 -1
11 12 16 17 15 13 13 12 11 12 10 9 10 11 8 4 3 4 1 1 1 1 0 -0 1 0 -0 -1 -1 -1 -1 -1 -1 -2 -2 -2 -2 -2 -2 -2 -2 -2 -1 -1 -1 -1 -1 -1 -1
13 15 17 18 16 14 13 11 12 11 11 10 10 11 8 9 4 3 3 2 1 1 0 0 0 1 1 0 0 -0 -1 -1 -1 -1 -1 -1 -2 -2 -2 -2 -2 -2 -1 -1 -1 -1 -1 -1 -1
13 14 16 18 17 16 13 11 11 11 11 9 9 10 9 8 4 2 2 2 2 1 1 1 0 0 0 0 1 1 0 -0 -1 -1 -0 -0 -1 -1 -1 -1 -2 -2 -1 -1 -1 -1 -1 -1 -1
11 15 17 17 16 15 12 12 10 9 11 10 9 7 7 8 7 4 3 3 3 2 2 0 0 -0 -0 1 1 2 1 1 1 1 1 1 1 0 0 -1 -1 -1 -2 -2 -1 -1 -1 -1 -1
14 17 16 14 13 13 12 12 11 11 11 11 9 7 7 8 9 9 7 4 3 2 2 0 1 0 -0 -0 1 1 0 0 1 1 1 1 1 1 1 1 -0 -1 -1 -1 -2 -1 -1 -0 1
13 16 13 12 11 11 11 11 11 12 12 11 11 8 6 7 6 6 7 6 4 2 1 1 1 -0 -0 -0 1 1 1 1 2 2 1 1 1 2 2 1 1 1 2 1 0 1 1 1 2
15 12 11 10 10 10 11 10 12 11 11 9 8 7 7 7 7 6 5 5 4 3 1 1 0 0 0 -0 0 1 1 1 2 2 1 2 2 2 2 2 2 2 1 2 2 3 2 2 2
13 12 11 10 10 11 10 11 11 11 10 9 8 8 8 7 7 6 5 4 3 4 2 1 1 0 0 0 -0 1 1 1 1 1 1 2 2 2 2 2 2 2 2 2 3 3 3 2 2
12 11 11 10 10 10 11 11 10 10 9 9 8 9 8 8 7 6 5 5 4 3 3 2 1 1 0 0 0 0 1 1 1 1 1 1 1 2 2 2 2 2 2 2 2 2 2 2 2
11 13 12 11 10 10 10 12 12 10 9 10 10 9 9 8 7 7 5 5 4 3 2 3 2 0 1 0 0 0 1 1 1 1 1 1 1 1 2 2 2 2 2 2 2 2 2 3 2
14 14 17 12 10 10 11 16 11 9 10 11 10 9 9 8 8 7 5 5 4 4 3 2 2 1 1 1 0 0 0 1 1 1 1 0 1 1 2 2 2 2 2 2 2 2 1 1 2
16 19 17 14 11 11 12 14 10 10 11 10 9 9 9 8 8 7 6 5 5 4 4 3 2 1 1 1 0 0 1 1 1 1 1 1 1 1 2 2 2 2 2 2 2 2 2 2 2
20 19 17 16 13 11 13 12 11 11 10 10 9 9 9 9 8 6 5 4 5 4 3 3 2 1 1 1 0 0 1 1 0 1 1 2 1 1 2 2 2 2 2 2 2 2 2 2 1
15 16 17 15 12 12 13 12 12 11 10 10 10 10 9 9 7 6 4 3 4 4 3 3 3 2 1 1 2 2 2 1 2 1 1 1 1 2 2 2 2 2 2 2 2 2 2 2 1
15 17 18 14 12 12 12 14 12 12 11 9 10 10 10 9 7 6 5 3 3 3 3 3 3 3 2 1 1 1 1 1 1 1 2 1 2 2 2 1 1 2 2 2 2 2 2 2 2
17 19 20 16 13 12 14 17 14 12 11 9 9 9 10 9 8 7 6 5 5 4 4 4 3 3 2 1 1 1 1 1 2 2 2 2 2 1 2 2 2 1 1 2 2 2 2 3 3
17 14 15 15 15 20 14 22 20 15 13 10 10 10 10 10 9 8 7 7 6 6 5 4 4 5 3 3 1 2 3 3 2 2 1 1 1 1 1 1 1 1 1 1 2 2 2 2 3
16 13 15 15 16 16 18 17 20 15 16 13 11 10 10 10 10 9 8 8 7 7 6 6 5 5 5 3 2 2 3 2 2 2 2 2 2 2 2 2 2 2 2 3 3 4 4 4 5
13 15 14 15 15 23 21 20 21 19 16 14 12 11 11 11 11 10 9 8 8 7 8 7 6 7 7 5 4 6 6 5 5 5 5 5 4 4 4 4 4 4 4 4 4 4 5 5 5
14 17 24 25 24 22 18 20 19 16 13 13 12 13 12 11 12 11 11 10 9 9 8 8 7 7 7 7 7 7 7 7 7 7 7 7 6 6 6 5 5 5 4 4 4 5 4 5 5
16 16 22 26 24 22 17 20 18 13 13 12 13 13 13 13 12 12 12 12 11 10 10 9 9 9 8 8 8 7 7 7 7 7 7 7 8 7 6 6 6 6 5 5 5 5 5 5 5
17 18 16 18 21 20 19 17 14 13 14 15 15 14 14 13 13 13 12 12 12 12 11 11 10 10 9 9 8 9 8 8 8 8 8 8 7 7 7 7 7 7 6 6 6 6 6 6 7
16 14 19 20 26 25 21 19 18 15 15 15 16 16 15 14 13 13 12 13 12 12 12 12 11 11 10 10 9 9 9 9 8 9 9 8 8 8 8 8 8 8 7 7 7 8 8 8 8
16 17 16 17 18 21 22 20 16 14 14 15 15 14 15 14 13 13 13 12 12 13 12 12 12 12 11 11 10 10 10 10 10 10 10 10 10 9 9 9 9 9 9 9 9 9 9 10 10
16 17 17 20 21 19 18 19 14 13 14 15 15 14 14 14 13 13 12 13 13 13 13 13 12 12 12 11 11 10 10 11 11 11 11 10 10 10 10 10 11 11 11 10 11 11 11 10 10